Home   Weather   Lille   Past weeks

Flag for France Past Weather in Lille, Nord-Pas-de-Calais, France — Yesterday and Last 2 Weeks

Now
39 °F

Clear.


Feels Like: 39 °F
Forecast: 42 / 65 °F
Wind: No wind

Location: Lille Airport

Current Time: Apr 29, 2017 at 5:44:42 am

Latest Report: Apr 29, 2017 at 5:00 am


Visibility: 10 mi

Pressure: 30.04 "Hg

Humidity: 81%

Dew Point: 34 °F

Location of LilleLocation

Past Weather in Lille — Graph

°F

Lille Temperature Yesterday

Maximum temperature yesterday: 57 °F (at 4:00 pm)
Minimum temperature yesterday: 43 °F (at 4:30 am)
Average temperature yesterday: 48 °F

High & Low Weather Summary for the Past Weeks

 TemperatureHumidityPressure
High59 °F (Apr 14, 5:00 pm)100% (Apr 23, 7:00 am)30.66 "Hg (Apr 23, 7:00 am)
Low28 °F (Apr 20, 7:00 am)23% (Apr 20, 7:00 pm)29.80 "Hg (Apr 24, 11:30 pm)
Average47 °F64%30.19 "Hg
* Reported Apr 14 4:30 am — Apr 29 4:30 am, Lille, Weather by CustomWeather, © 2017

Note: Actual official high and low records may vary slightly from our data, if they occured in-between our weather recording intervals... More about our weather records

Advertising

Lille Weather History for the Previous 24 Hours

Scroll right to see more
 ConditionsComfort  
Time TempWeatherWind HumidityBarometerVisibility
4:30 am
Sat, Apr 29
39 °FClear.No wind81%30.04 "Hg10 mi
4:00 am39 °FClear.No wind81%30.07 "Hg10 mi
3:30 am41 °FClear.No wind76%30.07 "Hg10 mi
3:00 am41 °FClear.No wind76%30.07 "Hg10 mi
2:30 am43 °FClear.No wind71%30.07 "Hg10 mi
2:00 am43 °FClear.No wind76%30.07 "Hg10 mi
1:30 am43 °FClear.No wind71%30.07 "Hg10 mi
1:00 am43 °FClear.No wind76%30.07 "Hg10 mi
12:30 am43 °FClear.2 mph71%30.07 "Hg10 mi
12:00 am43 °FClear.No wind71%30.07 "Hg10 mi
11:30 pm
Fri, Apr 28
45 °FClear.1 mph66%30.07 "Hg10 mi
11:00 pm43 °FClear.No wind66%30.07 "Hg10 mi
10:30 pm45 °FClear.No wind61%30.04 "Hg10 mi
10:00 pm46 °FClear.3 mph57%30.04 "Hg10 mi
9:30 pm48 °FClear.3 mph54%30.04 "Hg10 mi
9:00 pm48 °FPassing clouds.5 mph58%30.04 "HgN/A
8:30 pm50 °FPassing clouds.8 mph54%30.04 "HgN/A
8:00 pm52 °FPartly sunny.8 mph47%30.01 "HgN/A
7:30 pm54 °FSunny.8 mph44%30.01 "Hg10 mi
7:00 pm54 °FPartly sunny.8 mph41%30.01 "HgN/A
6:30 pm54 °FSunny.12 mph47%30.01 "Hg10 mi
6:00 pm52 °FPartly sunny.13 mph50%30.01 "HgN/A
5:30 pm54 °FBroken clouds.13 mph47%30.01 "HgN/A
5:00 pm54 °FPartly sunny.12 mph44%30.01 "HgN/A
4:30 pm54 °FOvercast.14 mph47%30.01 "HgN/A
4:00 pm57 °FPartly sunny.13 mph44%30.01 "HgN/A
3:00 pm54 °FMore clouds than sun.12 mph47%30.01 "HgN/A
2:30 pm54 °FPartly sunny.13 mph51%29.98 "HgN/A
2:00 pm52 °FBroken clouds.14 mph54%29.98 "HgN/A
1:30 pm52 °FOvercast.13 mph50%29.98 "HgN/A
1:00 pm54 °FPartly sunny.13 mph47%29.98 "HgN/A
12:30 pm52 °FMostly cloudy.15 mph54%29.98 "HgN/A
12:00 pm52 °FPartly sunny.14 mph54%29.98 "HgN/A
11:30 am50 °FCloudy.16 mph62%29.98 "HgN/A
11:00 am52 °FBroken clouds.13 mph62%29.98 "HgN/A
10:30 am50 °FPartly sunny.12 mph67%29.98 "HgN/A
9:30 am46 °FMostly cloudy.7 mph87%29.98 "Hg6 mi
9:00 am45 °FPartly sunny.6 mph93%29.98 "Hg5 mi
8:30 am45 °FLight rain. Fog.8 mph93%29.98 "Hg2 mi
8:00 am45 °FPartly sunny.3 mph87%29.95 "Hg4 mi
7:30 am43 °FClear.3 mph93%29.98 "Hg4 mi
7:00 am43 °FBroken clouds.5 mph87%29.95 "Hg5 mi
6:30 am43 °FBroken clouds.6 mph87%29.98 "Hg6 mi
6:00 am43 °FPartly cloudy.3 mph87%29.98 "HgN/A
5:30 am43 °FPartly cloudy.3 mph87%29.98 "HgN/A
5:00 am43 °FOvercast.3 mph87%29.98 "HgN/A
Weather by CustomWeather, © 2017

See weather overviewHow to use our weather pages